Location: *
(2.5500°S, 65.9667°W)
Time: 06:20:48
(UTC+00:00)

Tiros 1 despin weight - Pass Details

Date: 13 April 2024
Orbit: 578 x 621 km, 48.2° (Epoch: 25 May)

Event Time Altitude Azimuth Distance (km) Brightness Sun altitude
Rises 16:33:25 0° 224° (SW) 2,796 ? 77.8°
Maximum altitude 16:40:01 64° 308° (NW) 649 ? 77.4°
Drops below altitude 10° 16:44:22 10° 31° (NNE) 1,916 ? 77.0°
Sets 16:46:41 0° 34° (NNE) 2,823 ? 76.8°
